Torna al catalogo

BREEZE-M R/B

AttivoHEO
NORAD 41192·ROCKET BODY·🇷🇺 Russia

Lanciato Dec 24, 2015 da Baikonur Cosmodrome

Loading…

Prossimi Passaggi (prossime 24 ore)

TLE

AggiornatoSource: Space-Track

Epoca: Sep 14, 2026, 06:39 UTC

1 41192U 15082B   26257.27719123 -.00000097  00000-0  00000-0 0  9994
2 41192  23.0706  56.2635 6007088 203.1430 111.4189  2.16570124 84843

Traccia BREEZE-M R/B in tempo reale con AllMySat

Download on the App Store